Regional Weather Roundup
Issued by NWS Boston, MA

Current Version | Previous Version | Text Only | Print | Product List | Glossary On
Versions: 1 2 3 4 5 6 7 8 9 10 11 12 13 14 15 16 17 18 19 20 21 22 23 24 25 26 27
000
ASUS41 KBOX 192010
RWRBOX

REGIONAL WEATHER ROUNDUP
NATIONAL WEATHER SERVICE TAUNTON MA
400 PM EDT SAT APR 19 2014

NOTE:  "FAIR" INDICATES FEW OR NO CLOUDS BELOW 12,000 FEET WITH NO
SIGNIFICANT WEATHER AND/OR OBSTRUCTIONS TO VISIBILITY.  THE FOLLOWING
OBSERVATION LOCATIONS DO NOT REPORT PRESENT WEATHER...PROVINCETOWN...
SMITHFIELD...BLOCK ISLAND...KEENE...AND OXFORD.

MAZALL-192100-
EASTERN MASSACHUSETTS

CITY           SKY/WX    TMP DP  RH WIND       PRES   REMARKS
BOSTON         PTSUNNY   62  29  28 N17G23    30.20R
BEVERLY        SUNNY     61  29  29 NW24      30.20R
LAWRENCE       MOSUNNY   60  26  27 NW20G26   30.22R
BEDFORD        SUNNY     61  29  29 N21G28    30.20R
BLUE HILL        N/A     61  30  31 NW8G22    30.18R
NORWOOD        MOSUNNY   63  30  28 N10G18    30.19R
MARSHFIELD       N/A    N/A N/A N/A MISG        N/A
PLYMOUTH       MOSUNNY   62  31  31 N9        30.19R
TAUNTON        MOSUNNY   67  29  24 VRB6      30.18S
NEW BEDFORD    MOSUNNY   64  30  27 N12       30.18R
$$

MAZALL-192100-
CAPE COD AND THE ISLANDS

CITY           SKY/WX    TMP DP  RH WIND       PRES   REMARKS
FALMOUTH       SUNNY     59  30  33 NE12G22   30.19S
HYANNIS        SUNNY     58  32  37 N14G22    30.19R
CHATHAM        SUNNY     58  31  35 N8G20     30.21R
PROVINCETOWN   SUNNY     52  37  58 MISG      30.22R
NANTUCKET      SUNNY     58  32  37 N13G21    30.21R
MARTHAS VNYRD  MOSUNNY   59  35  40 S9        30.21R
$$

MAZALL-192100-
CENTRAL AND WESTERN MASSACHUSETTS

CITY           SKY/WX    TMP DP  RH WIND       PRES   REMARKS
WORCESTER      SUNNY     57  26  30 N13G22    30.21R
FITCHBURG      SUNNY     62  27  26 NW18G29   30.23R
ORANGE         MOSUNNY   61  27  27 NW13G21   30.23R
SPRINGFIELD    SUNNY     63  26  24 N20G25    30.22R
WESTFIELD      SUNNY     64  26  23 N18G30    30.22R
NORTH ADAMS    PTSUNNY   57  29  34 VRB7      30.28R
PITTSFIELD     MOSUNNY   56  27  32 N15G24    30.25R
$$

RIZALL-192100-
RHODE ISLAND

CITY           SKY/WX    TMP DP  RH WIND       PRES   REMARKS
PROVIDENCE     PTSUNNY   64  27  24 NW12G21   30.19F
NEWPORT        MOSUNNY   62  29  28 N14       30.19R
BLOCK ISLAND   MOSUNNY   61  34  36 CALM      30.21R
SMITHFIELD     MOSUNNY   63  28  27 NW12G22   30.21R
WESTERLY       MOSUNNY   64  29  26 VRB5G17   30.20S
$$

CTZALL-192100-
CONNECTICUT

CITY           SKY/WX    TMP DP  RH WIND       PRES   REMARKS
BRADLEY INTL   PTSUNNY   64  26  23 NW17G24   30.21S
HARTFORD       SUNNY     64  29  26 N14G21    30.22R
BRIDGEPORT     MOSUNNY   65  27  23 NW12G21   30.22S
DANBURY        SUNNY     61  25  25 NW13G22   30.25R
GROTON         MOSUNNY   66  29  24 N6G17     30.19S
NEW HAVEN      MOSUNNY   65  27  23 NW12G23   30.21S
CHESTER        FAIR      63  28  27 N15G23    30.21S
MERIDEN        SUNNY     64  27  24 NW13G24   30.22R
WILLIMANTIC    SUNNY     64  28  25 NW14      30.21R
OXFORD         SUNNY     61  30  31 N20G26    30.24S
$$

MEZ002-015-021-024-NHZ003-005-008-011-012-014-VTZ005-008-192100-
NORTHERN NEW ENGLAND

CITY           SKY/WX    TMP DP  RH WIND       PRES   REMARKS
PORTLAND ME    MOSUNNY   54  30  40 NW16G30   30.20R
BANGOR ME      CLOUDY    48  28  46 NW20G31   30.16R
CONCORD NH     MOSUNNY   56  28  34 NW16G24   30.24R
MANCHESTER NH  MOSUNNY   58  26  29 NW17G28   30.22R
NASHUA NH      MOSUNNY   60  27  28 N17G30    30.23R
PORTSMOUTH NH  MOSUNNY   58  27  30 NW20G32   30.21R
JAFFREY NH     PTSUNNY   53  26  35 NW8G18    30.25R
KEENE NH       NOT AVBL
BURLINGTON VT  PTSUNNY   49  28  44 N12       30.35S
MT. WASHINGTON FOG       18  18 100 NW59G66     N/A  VSB 0   WCI  -7
$$

NYZ052-076-192100-
EASTERN NEW YORK

CITY           SKY/WX    TMP DP  RH WIND       PRES   REMARKS
ALBANY         MOSUNNY   60  25  26 NW18G26   30.29R
NEW YORK CITY  PTSUNNY   64  24  21 N6        30.22F
$$

ANZALL-192100-
MARINE OBSERVATIONS

STATION/POSITION TIME  TEMP    WIND        PRES    VSBY  WAVE
                       AIR SEA DIR/SP/G                  HT/PER
                 (UTC) (F)     (DEG/KT/KT) (MB)    (MI)  (FT/S)
BOSTON BUOY      1950   49 41   10/  8/ 10 1022.6R         3/10
BUZZARDS BAY     1900          150/  8/  9 1023.1R
NANTUCKET SOUND  1950   51 47  230/  6/ 10 1022.8R         2/ 3
MASS BAY-STELLWA 1904   50 40  330/ 14/ 17 1020.5F  1 5/8  5/11
ISLE OF SHOALS   2000   51     330/ 22/ 24 1022.3R
S OF BLOCK IS    1925      42                N/A           3/10
$$

......................KEY.........................
  SKY/WX - SKY CONDITION/PRESENT WEATHER
  TMP    - TEMPERATURE IN FAHRENHEIT
  DWPT   - DEWPOINT IN FAHRENHEIT
  RH     - RELATIVE HUMIDITY IN PERCENT
  WIND   - DIRECTION AND SPEED IN MPH
  PRES   - MEAN SEA LEVEL PRESSURE IN INCHES OF HG
  WCI    - WIND CHILL INDEX
  VSB    - VISIBILITY IN MILES
  HX     - HEAT INDEX
  TC     - TEMPERATURE IN CELSIUS
  VRB    - VARIABLE WIND DIRECTION
  N/A    - NOT AVAILABLE



USA.gov is the U.S. government's official web portal to all federal, state and local government web resources and services.